[[{"header":{"parameterUnit":"m.s-1","parameterCategory":1,"la1":30.2991,"la2":30.254,"lo1":-89.0895,"lo2":-89.0444,"dy":0.0017,"dx":0.0017,"nx":28,"ny":28,"refTime":"2025-09-19T03:00:00:Z","depth":0,"parameterNumber":2,"parameterNumberName":"U-component_of_WINDS"},"data":[0,0,0,0,0,0,0,0,0,0,0,0,0,0,0,0,0,0,0,0,0,0,0,0,0,0,0,0,0,0,0,0,0,0,0,0,0,0,0,0,0,0,0,0,0,0,0,0,0,0,0,0,0,0,0,0,0,0,-0.1946,-0.1945,0,-0.183,-0.1828,-0.1827,-0.1801,-0.1801,-0.1802,-0.1803,-0.1682,-0.1678,-0.1674,0,0,0,0,0,0,0,0,0,0,0,0,0,-0.2146,-0.2142,-0.1946,-0.1945,-0.1943,-0.183,-0.1828,-0.1827,-0.1801,-0.1802,-0.1803,-0.1803,-0.1683,-0.1679,-0.1674,0,0,0,0,0,0,0,0,0,0,0,0,0,-0.2047,-0.2141,-0.1946,-0.1916,-0.1913,-0.183,-0.1828,-0.1826,-0.18,-0.1802,-0.1803,-0.1804,-0.1685,-0.1679,-0.1673,-0.1612,0,0,-0.1655,-0.1652,0,0,0,0,0,0,0,0,-0.2053,-0.204,-0.1922,-0.1918,-0.1914,-0.1831,-0.1854,-0.1754,-0.18,-0.1843,-0.1803,-0.1805,-0.1731,-0.1721,-0.1696,-0.1606,-0.1601,-0.1655,-0.1651,-0.1648,-0.1647,0,0,0,0,0,0,0,-0.206,-0.2045,-0.19,-0.1921,-0.1916,-0.1909,-0.1896,-0.1835,-0.1781,-0.1839,-0.1837,-0.1824,-0.1728,-0.1702,-0.1693,-0.1599,-0.1655,-0.1649,-0.1646,-0.1643,-0.1456,-0.1454,0,0,0,0,0,0,-0.2072,-0.2051,-0.1904,-0.1896,-0.1988,-0.1905,-0.189,-0.1856,-0.1782,-0.1772,-0.1823,-0.1823,-0.1712,-0.17,-0.1689,-0.1613,-0.1648,-0.1643,-0.1639,-0.1457,-0.1455,-0.1454,0,0,0,0,0,0,-0.2076,-0.2059,-0.1908,-0.1973,-0.1953,-0.19,-0.1862,-0.1853,-0.1827,-0.1769,-0.176,-0.1806,-0.1712,-0.1697,-0.1632,-0.1609,-0.164,-0.1635,-0.1459,-0.1457,-0.1455,-0.1461,0,0,0,0,0,0,-0.2082,-0.2061,-0.2036,-0.1973,-0.195,-0.1853,-0.186,-0.185,-0.1817,-0.1816,-0.1751,-0.1741,-0.1712,-0.1641,-0.1626,-0.1601,-0.163,-0.1461,-0.1458,-0.1455,-0.1463,-0.1459,-0.1457,0,0,0,0,0,-0.2089,-0.2042,-0.2035,-0.2018,-0.1918,-0.1852,-0.1839,-0.1807,-0.1815,-0.1791,-0.1754,-0.1743,-0.1614,-0.1635,-0.1617,-0.159,-0.1462,-0.1459,-0.1456,-0.1464,-0.146,-0.1457,0,0,0,0,0,0,-0.2102,-0.2033,-0.2025,-0.1955,-0.191,-0.1847,-0.1815,-0.1803,-0.1754,-0.1755,-0.1717,-0.1702,-0.164,-0.1609,-0.1633,-0.1529,-0.1538,-0.1532,-0.1551,-0.1546,-0.1544,-0.1552,-0.1625,0,0,0,0,0,-0.2098,-0.2049,-0.1991,-0.1935,-0.1913,-0.1868,-0.1838,-0.1818,-0.1769,-0.1749,-0.1708,-0.166,-0.161,-0.1576,-0.1526,-0.1459,-0.1445,-0.1432,-0.1429,-0.1427,-0.1421,-0.1385,-0.1379,-0.1444,-0.1444,-0.1444,0,0,-0.2086,-0.2042,-0.2014,-0.1937,-0.1899,-0.1851,-0.1852,-0.18,-0.1763,-0.1741,-0.1677,-0.1646,-0.159,-0.1525,-0.1493,-0.1497,-0.1401,-0.1423,-0.1422,-0.1417,-0.1382,-0.1376,-0.137,-0.1441,-0.1442,-0.1442,0,0,-0.2041,-0.2002,-0.1953,-0.1916,-0.186,-0.1831,-0.1819,-0.1759,-0.1738,-0.1674,-0.1657,-0.1613,-0.1526,-0.1488,-0.1457,-0.1402,-0.1391,-0.1387,-0.1371,-0.1336,-0.1331,-0.1326,-0.1308,-0.1301,-0.1382,-0.1382,-0.1382,0,-0.2033,-0.1959,-0.1928,-0.1878,-0.1845,-0.1825,-0.1775,-0.174,-0.167,-0.1648,-0.1654,-0.1546,-0.1507,-0.1433,-0.142,-0.1396,-0.1382,-0.1393,-0.1334,-0.1329,-0.1325,-0.1306,-0.1299,-0.1381,-0.1382,-0.1382,-0.1382,0,-0.1954,-0.1903,-0.1869,-0.1804,-0.1768,-0.1718,-0.168,-0.1647,-0.1632,-0.1603,-0.1539,-0.1493,-0.1434,-0.1415,-0.1398,-0.1339,-0.1343,-0.1342,-0.1351,-0.1319,-0.1301,-0.1294,-0.1381,-0.1381,-0.1381,-0.1381,0,0,-0.1909,-0.1831,-0.1819,-0.179,-0.1729,-0.1689,-0.1639,-0.1583,-0.1556,-0.151,-0.1467,-0.1396,-0.1396,-0.1361,-0.134,-0.131,-0.1271,-0.1313,-0.1311,-0.1307,-0.1205,-0.1206,-0.1198,-0.1264,-0.1263,-0.1261,-0.121,0,-0.1857,-0.1767,-0.1739,-0.1664,-0.1618,-0.16,-0.1557,-0.1515,-0.1487,-0.1444,-0.1414,-0.1364,-0.1367,-0.1347,-0.1316,-0.1282,-0.125,-0.1286,-0.1224,-0.1223,-0.1238,-0.1189,-0.1189,-0.1142,-0.1203,-0.1201,-0.12,0,-0.1781,-0.1736,-0.1657,-0.1604,-0.1583,-0.1545,-0.1493,-0.1452,-0.1405,-0.1387,-0.1351,-0.1333,-0.1282,-0.1295,-0.1224,-0.1249,-0.1223,-0.1204,-0.1201,-0.1193,-0.1209,-0.1179,-0.1126,-0.1119,-0.1189,-0.119,-0.1191,0,-0.1758,-0.1677,-0.1619,-0.1595,-0.1532,-0.1506,-0.1478,-0.1433,-0.1402,-0.1356,-0.1336,-0.1285,-0.1257,-0.1219,-0.1189,-0.1201,-0.1121,-0.1131,-0.1105,-0.1106,-0.1087,-0.1089,-0.1029,-0.1072,-0.1072,-0.1072,-0.1072,0,-0.1701,-0.1654,-0.1609,-0.1573,-0.152,-0.149,-0.1438,-0.141,-0.137,-0.133,-0.1311,-0.1274,-0.1236,-0.1194,-0.1171,-0.1117,-0.1104,-0.1089,-0.1083,-0.109,-0.1092,-0.1071,-0.1074,-0.107,-0.107,-0.1071,-0.1071,0,-0.1665,-0.1633,-0.157,-0.1516,-0.1502,-0.1465,-0.1419,-0.1385,-0.1359,-0.1308,-0.1294,-0.1252,-0.1202,-0.1169,-0.1104,-0.1088,-0.103,-0.1024,-0.1045,-0.1043,-0.1018,-0.1021,-0.0943,-0.0931,-0.0982,-0.0981,-0.0981,0,-0.1631,-0.1594,-0.1537,-0.151,-0.1482,-0.1437,-0.1406,-0.1376,-0.1345,-0.1291,-0.1263,-0.1212,-0.117,-0.1091,-0.1055,-0.1006,-0.1,-0.0976,-0.0992,-0.1001,-0.1,-0.1002,-0.0999,-0.0973,-0.0972,-0.0972,-0.0972,0,-0.1573,-0.156,-0.1516,-0.1467,-0.1432,-0.1391,-0.1351,-0.133,-0.1293,-0.1259,-0.1208,-0.1176,-0.1112,-0.1062,-0.101,-0.0982,-0.0971,-0.0967,-0.0959,-0.0965,-0.0979,-0.0972,-0.1038,-0.0969,-0.0969,-0.0969,-0.0969,-0.0969,-0.1536,-0.1504,-0.146,-0.1413,-0.138,-0.1344,-0.131,-0.128,-0.1238,-0.1183,-0.1169,-0.1116,-0.1073,-0.1003,-0.0975,-0.0934,-0.0937,-0.0924,-0.0921,-0.0918,-0.0918,-0.0987,-0.0925,-0.0925,-0.0925,-0.0925,-0.0925,0,-0.1478,-0.145,-0.1407,-0.1353,-0.1316,-0.1311,-0.1267,-0.1237,-0.1191,-0.1152,-0.1112,-0.1055,-0.1007,-0.0969,-0.092,-0.0895,-0.0889,-0.0883,-0.0884,-0.0879,-0.0918,-0.0931,-0.0889,-0.0889,-0.0889,-0.0889,-0.0889,-0.0889,-0.1444,-0.1389,-0.1371,-0.1301,-0.1273,-0.1222,-0.1198,-0.1165,-0.1134,-0.1072,-0.1033,-0.1009,-0.097,-0.0919,-0.0876,-0.0866,-0.0849,-0.0845,-0.0834,-0.0871,-0.0875,-0.0879,-0.0891,-0.0841,-0.0841,-0.0797,-0.0797,-0.0797]},{"header":{"parameterUnit":"m.s-1","parameterCategory":1,"la1":30.2991,"la2":30.254,"lo1":-89.0895,"lo2":-89.0444,"dy":0.0017,"dx":0.0017,"nx":28,"ny":28,"refTime":"2025-09-19T03:00:00:Z","depth":0,"parameterNumber":3,"parameterNumberName":"V-component_of_WINDS"},"data":[0,0,0,0,0,0,0,0,0,0,0,0,0,0,0,0,0,0,0,0,0,0,0,0,0,0,0,0,0,0,0,0,0,0,0,0,0,0,0,0,0,0,0,0,0,0,0,0,0,0,0,0,0,0,0,0,0,0,2.8916,2.8916,0,2.8911,2.8911,2.8911,2.894,2.894,2.8941,2.8942,2.8934,2.8933,2.8932,0,0,0,0,0,0,0,0,0,0,0,0,0,2.8946,2.8945,2.8916,2.8916,2.8916,2.8911,2.8911,2.8911,2.8939,2.894,2.8941,2.8942,2.8934,2.8933,2.8932,0,0,0,0,0,0,0,0,0,0,0,0,0,2.8936,2.8945,2.8916,2.893,2.8931,2.8911,2.8911,2.8911,2.8939,2.8941,2.8942,2.8943,2.8935,2.8933,2.8932,2.8899,0,0,2.8928,2.8927,0,0,0,0,0,0,0,0,2.8937,2.8935,2.8928,2.8929,2.893,2.8928,2.8919,2.8907,2.8939,2.8936,2.8942,2.8943,2.8931,2.893,2.8926,2.8898,2.8898,2.8927,2.8927,2.8926,2.8926,0,0,0,0,0,0,0,2.8937,2.8935,2.8914,2.8928,2.8929,2.8935,2.8935,2.8917,2.8926,2.8936,2.8938,2.8938,2.8932,2.8927,2.8926,2.8898,2.8927,2.8926,2.8925,2.8925,2.8838,2.8837,0,0,0,0,0,0,2.8937,2.8936,2.8915,2.8914,2.8937,2.8933,2.8933,2.8927,2.8927,2.8928,2.8937,2.8939,2.8929,2.8928,2.8926,2.8884,2.8926,2.8925,2.8924,2.884,2.8838,2.8836,0,0,0,0,0,0,2.8937,2.8935,2.8915,2.8926,2.8924,2.8931,2.8924,2.8926,2.8922,2.8927,2.8928,2.8931,2.893,2.8928,2.8904,2.8884,2.8924,2.8923,2.8841,2.8839,2.8837,2.8801,0,0,0,0,0,0,2.8938,2.8935,2.8923,2.8925,2.8923,2.8895,2.8923,2.8925,2.892,2.8923,2.8922,2.8923,2.8931,2.8906,2.8903,2.8883,2.8921,2.8843,2.884,2.8838,2.8804,2.8798,2.8793,0,0,0,0,0,2.8939,2.8913,2.8922,2.892,2.8909,2.8893,2.8892,2.8903,2.8918,2.8906,2.8908,2.8923,2.8887,2.8904,2.89,2.8879,2.8845,2.8841,2.8838,2.8807,2.8799,2.8793,0,0,0,0,0,0,2.8908,2.8914,2.8924,2.8898,2.8895,2.8898,2.8883,2.8895,2.8887,2.889,2.8902,2.8902,2.8875,2.8875,2.8894,2.8845,2.8868,2.8864,2.8846,2.8839,2.8833,2.8833,2.892,0,0,0,0,0,2.8898,2.8887,2.8892,2.8869,2.8867,2.8875,2.8869,2.8877,2.8874,2.8873,2.8874,2.8869,2.8857,2.8848,2.8837,2.8805,2.8803,2.8789,2.8783,2.8778,2.8774,2.8753,2.8746,2.8826,2.8826,2.8826,0,0,2.8878,2.888,2.8872,2.8863,2.8861,2.8847,2.8874,2.8858,2.8847,2.887,2.8847,2.8848,2.8843,2.8814,2.8802,2.8814,2.8751,2.8774,2.877,2.8768,2.8749,2.8741,2.8735,2.8824,2.8824,2.8825,0,0,2.8833,2.8834,2.8814,2.8812,2.8809,2.8815,2.8809,2.881,2.8811,2.8789,2.8805,2.8792,2.8771,2.8766,2.8761,2.8712,2.8724,2.8708,2.8678,2.8657,2.8651,2.8645,2.8625,2.8618,2.8704,2.8704,2.8704,0,2.8807,2.8788,2.8802,2.8784,2.8778,2.8799,2.8777,2.8774,2.8768,2.8762,2.8776,2.8748,2.8747,2.8716,2.8703,2.87,2.8692,2.8707,2.8651,2.8646,2.8641,2.8621,2.8613,2.8702,2.8702,2.8702,2.8703,0,2.8755,2.8741,2.8725,2.8718,2.8711,2.8691,2.87,2.8691,2.8699,2.8702,2.8678,2.8677,2.8665,2.8658,2.8667,2.8627,2.8634,2.8649,2.8673,2.863,2.8612,2.8605,2.8699,2.87,2.87,2.8701,0,0,2.869,2.869,2.8684,2.868,2.8678,2.8666,2.8647,2.8635,2.8625,2.862,2.8602,2.8583,2.8596,2.859,2.8598,2.8581,2.8538,2.8598,2.8598,2.8584,2.849,2.8477,2.8468,2.8547,2.8546,2.8545,2.8489,0,2.8643,2.8611,2.8621,2.8587,2.8573,2.8592,2.8574,2.857,2.8572,2.8558,2.8561,2.8546,2.8566,2.8562,2.8546,2.8547,2.8519,2.8551,2.8527,2.8526,2.8525,2.8459,2.8445,2.8393,2.8483,2.8482,2.8481,0,2.8585,2.8577,2.8541,2.854,2.8534,2.8518,2.8507,2.8495,2.8489,2.8492,2.8484,2.8495,2.8473,2.8498,2.8467,2.8488,2.8479,2.8478,2.8476,2.8472,2.8499,2.845,2.8378,2.8368,2.847,2.8471,2.8472,0,2.8537,2.8518,2.8493,2.849,2.8488,2.8475,2.8474,2.847,2.8461,2.8451,2.8445,2.8433,2.8425,2.8414,2.842,2.8439,2.8386,2.8413,2.8385,2.8385,2.8371,2.8372,2.8293,2.837,2.837,2.8371,2.8371,0,2.8482,2.8459,2.8471,2.8456,2.8429,2.8441,2.8414,2.8415,2.841,2.8394,2.841,2.8393,2.8404,2.8388,2.8393,2.8363,2.8361,2.836,2.8361,2.8357,2.8356,2.8349,2.8352,2.8368,2.8369,2.8369,2.837,0,2.8424,2.8431,2.8405,2.8405,2.8405,2.8385,2.8384,2.8368,2.8372,2.835,2.8346,2.835,2.8332,2.8337,2.8318,2.832,2.8282,2.829,2.8284,2.8285,2.8256,2.8257,2.8167,2.8155,2.8243,2.8242,2.8241,0,2.8387,2.8369,2.8367,2.8358,2.8355,2.834,2.8331,2.8342,2.8331,2.8323,2.8307,2.829,2.8277,2.8246,2.8246,2.823,2.8235,2.8205,2.8233,2.8228,2.8231,2.823,2.8227,2.8198,2.8197,2.8197,2.8196,0,2.832,2.8324,2.8312,2.83,2.8289,2.828,2.8272,2.8263,2.8273,2.826,2.8241,2.8231,2.821,2.8192,2.8177,2.8173,2.8184,2.8187,2.8179,2.8174,2.817,2.8168,2.8266,2.8189,2.819,2.819,2.819,2.8191,2.8269,2.8253,2.8249,2.8233,2.8229,2.822,2.8205,2.8206,2.8191,2.8175,2.8183,2.816,2.8152,2.8134,2.8128,2.8109,2.812,2.811,2.8107,2.8103,2.8098,2.8175,2.8107,2.8107,2.8107,2.8107,2.8107,0,2.82,2.8198,2.8184,2.8172,2.8159,2.8174,2.8165,2.8152,2.8133,2.8126,2.8112,2.8089,2.8071,2.8069,2.8051,2.8036,2.8041,2.8031,2.803,2.8028,2.809,2.8097,2.8027,2.8027,2.8027,2.8027,2.8027,2.8027,2.8162,2.8135,2.8139,2.8108,2.8106,2.8085,2.8078,2.807,2.8063,2.8037,2.8022,2.8022,2.8016,2.7997,2.798,2.798,2.7971,2.7958,2.796,2.8017,2.8025,2.8032,2.8039,2.7957,2.7957,2.7899,2.7898,2.7898]}]]